Flag for Canada Weather past 2 weeks in Camrose, Alberta, Canada

Now
59 °F

Broken clouds.


Feels Like: 58 °F
Forecast: 62 / 77 °F
Wind: 6 mph from North

Location: Edmonton International

Current Time: Aug 1, 2014 at 9:17:00 AM

Latest Report: Aug 1, 2014 at 8:00 AM


Visibility: 15 mi

Pressure: 30.23 "Hg

Humidity: 88%

Dew point: 55 °F

Location of CamroseLocation

Historic Weather in Camrose — Graph

°F

Camrose temperature yesterday

Maximum temperature yesterday: 81 °F (at 4:00 PM)
Minimum temperature yesterday: 61 °F (at 6:00 AM)
Average temperature yesterday: 71 °F

Past Weeks' High & Low Weather Summary

 TemperatureHumidityPressure
High86 °F (Jul 30, 3:00 PM)100% (Jul 18, 2:00 AM)30.24 "Hg (Jul 18, 2:00 AM)
Low39 °F (Jul 21, 6:00 AM)34% (Jul 24, 4:00 PM)29.52 "Hg (Jul 24, 6:00 PM)
Average62 °F79%29.92 "Hg
* Reported Jul 17 8:00 AM — Aug 1 8:00 AM, Camrose, Weather by CustomWeather, © 2014

Note: Actual official high and low records may vary slightly from our data, if they occured in-between our weather recording intervals... More about our weather records

Advertising

Camrose weather history for previous 24 hours

 ConditionsComfort  
Time TempWeatherWind HumidityBarometerVisibility
8:00 AM
Aug 1
59 °FBroken clouds.6 mph88%30.23 "Hg15 mi
7:00 AM55 °FBroken clouds.No wind94%30.22 "Hg15 mi
6:00 AM54 °FPartly cloudy.3 mph94%30.20 "Hg15 mi
5:00 AM54 °FPartly cloudy.No wind100%30.19 "Hg15 mi
4:00 AM54 °FPartly cloudy.2 mph94%30.18 "Hg15 mi
3:00 AM59 °FPartly cloudy.6 mph82%30.15 "Hg15 mi
2:00 AM63 °FPassing clouds.8 mph73%30.14 "Hg15 mi
1:00 AM61 °FMostly cloudy.7 mph83%30.12 "Hg15 mi
12:00 AM63 °FPassing clouds.8 mph77%30.14 "Hg15 mi
11:00 PM
Jul 31
63 °FPassing clouds.7 mph83%30.13 "Hg15 mi
10:00 PM64 °FMore clouds than sun.3 mph83%30.13 "Hg15 mi
9:00 PM68 °FBroken clouds.6 mph78%30.11 "Hg15 mi
8:00 PM72 °FBroken clouds.8 mph73%30.09 "Hg15 mi
7:00 PM77 °FScattered clouds.8 mph57%30.07 "Hg15 mi
6:00 PM81 °FPassing clouds.6 mph51%30.07 "Hg15 mi
5:00 PM81 °FPassing clouds.9 mph51%30.07 "Hg15 mi
4:00 PM81 °FPassing clouds.8 mph48%30.08 "Hg15 mi
3:00 PM79 °FScattered clouds.10 mph51%30.10 "Hg15 mi
2:00 PM79 °FScattered clouds.8 mph51%30.11 "Hg20 mi
1:00 PM77 °FBroken clouds.7 mph57%30.11 "Hg15 mi
12:00 PM77 °FPartly sunny.9 mph57%30.11 "Hg15 mi
11:00 AM77 °FPartly sunny.5 mph54%30.10 "Hg15 mi
10:00 AM75 °FBroken clouds.6 mph50%30.10 "Hg15 mi
9:00 AM72 °FPartly sunny.8 mph57%30.09 "Hg15 mi
Weather by CustomWeather, © 2014

See weather overviewHow to use our weather pages